DW6083 Weather Reports


Display with metric or nautical units.
time (UTC)temp
F
wind
direction
speed
MPH
gust
MPH
rain 1hr
in
rain 24hr
in
rain mn
in
humidity
%
barometer
mb
20260503184525 69 321 0.0 0.0 0.00 0.00 0.00 47 1018.8
20260503183024 70 205 0.0 0.0 0.00 0.00 0.00 49 1018.9
20260503181524 69 173 0.0 0.0 0.00 0.00 0.00 51 1019.1
20260503180005 69 192 0.0 0.0 0.00 0.00 0.00 49 1019.3
20260503174501 67 321 0.0 0.0 0.00 0.00 0.00 53 1019.4
20260503173102 67 222 0.0 0.0 0.00 0.00 0.00 48 1019.5
20260503171552 66 208 0.0 0.0 0.00 0.00 0.00 51 1019.7
20260503081517 42 128 0.0 0.0 0.00 0.00 0.00 1 1017.2
20260503071600 43 128 0.0 0.0 0.00 0.00 0.00 1 1016.7
20260503054528 48 128 0.0 0.0 0.00 0.00 0.00 1 1016.6
20260503053035 48 128 0.0 0.0 0.00 0.00 0.00 1 1016.6
20260503051522 48 128 0.0 0.0 0.00 0.00 0.00 1 1016.4
20260503050015 49 128 0.0 0.0 0.00 0.00 0.00 1 1016.3
20260503044518 49 128 0.0 0.0 0.00 0.00 0.00 1 1016.1
20260503043006 49 128 0.0 0.0 0.00 0.00 0.00 1 1016.1
20260503041503 50 128 0.0 0.0 0.00 0.00 0.00 1 1015.9
20260503040106 51 128 0.0 0.0 0.00 0.00 0.00 1 1015.7
20260503034558 51 128 0.0 0.0 0.00 0.00 0.00 1 1015.8
20260503033048 51 128 0.0 0.0 0.00 0.00 0.00 1 1015.7
20260503031544 51 128 0.0 0.0 0.00 0.00 0.00 1 1015.5
20260503030042 52 128 0.0 0.0 0.00 0.00 0.00 1 1015.5
20260503024534 52 128 0.0 0.0 0.00 0.00 0.00 1 1015.4
20260503023032 52 128 0.0 0.0 0.00 0.00 0.00 1 1015.1
20260503021525 53 128 0.0 0.0 0.00 0.00 0.00 1 1015.0
20260503020032 53 128 0.0 1.0 0.00 0.00 0.00 1 1014.8
20260503014516 54 128 0.0 1.0 0.00 0.00 0.00 1 1014.4
20260503013012 55 5 0.0 0.0 0.00 0.00 0.00 1 1014.9
20260503011507 56 5 0.0 0.0 0.00 0.00 0.00 1 1014.8
20260503010005 57 342 0.0 0.0 0.00 0.00 0.00 1 1014.5
20260503004606 58 169 0.0 0.0 0.00 0.00 0.00 1 1013.1
20260503003103 59 169 0.0 0.0 0.00 0.00 0.00 1 1012.6
20260503001555 59 169 0.0 0.0 0.00 0.00 0.00 1 1012.3
20260503000051 60 169 0.0 0.0 0.00 0.00 0.00 6 1012.2
20260502234554 61 169 0.0 0.0 0.00 0.00 0.00 17 1012.0
20260502233040 62 169 0.0 0.0 0.00 0.00 0.00 21 1011.8
20260502231535 62 169 0.0 0.0 0.00 0.00 0.00 39 1011.6
20260502230030 62 129 0.0 0.0 0.00 0.00 0.00 43 1011.5
20260502224524 63 129 0.0 0.0 0.00 0.00 0.00 46 1011.4
20260502223034 64 129 0.0 0.0 0.00 0.00 0.00 47 1011.5
20260502221516 64 129 0.0 0.0 0.00 0.00 0.00 52 1011.2
20260502220012 65 54 0.0 0.0 0.00 0.00 0.00 54 1011.2
20260502214506 65 115 0.0 0.0 0.00 0.00 0.00 53 1011.2
20260502213003 65 114 0.0 0.0 0.00 0.00 0.00 53 1011.2
20260502211559 64 355 0.0 0.0 0.00 0.00 0.00 50 1011.1
20260502210052 64 125 0.0 0.0 0.00 0.00 0.00 53 1011.1
20260502204548 64 131 0.0 0.0 0.00 0.00 0.00 53 1011.1
20260502203106 65 44 0.0 0.0 0.00 0.00 0.00 47 1011.1
20260502201543 64 150 0.0 0.0 0.00 0.00 0.00 51 1011.3
20260502200041 64 111 0.0 0.0 0.00 0.00 0.00 47 1011.3
20260502194530 64 131 0.0 0.0 0.00 0.00 0.00 35 1011.6
20260502193025 63 24 0.0 0.0 0.00 0.00 0.00 13 1011.8
20260502191521 62 24 0.0 0.0 0.00 0.00 0.00 1 1012.0
20260502190020 60 23 0.0 0.0 0.00 0.00 0.00 1 1012.2